STARLINK-36864, 68045

Orbit data source: Space-Track

STARLINK-36864, 68045 is a payload satellite owned by SpaceX/Seattle (US) in LEO that was launched on Mon, 02 Mar 2026 UTC via an FALCON 9 launch vehicle from the Air Force Eastern Test Range (AFETR). Payload-class satellites include a variety of spacecraft equipped with specific instruments for various scientific and technological missions. These include communications satellites like Starlink; space stations such as the ISS; scientific satellites like the Hubble; Earth observation satellites from companies like Planet Labs, Umbra, and HawkEye 360; GPS; miniature CubeSats for education and research; and military/defense satellites.

Loading next visibility...
Identifier
68045, 2026-041F
Orbit
LEO
Country
Flag of USUS
Related business
Manufacturer
SpaceX/Seattle
Mission
Operational Commercial Communications
Bus & Motor
STARLINK V2MO, Unknown motor
Mass
575 kg wet, ~530 kg dry
Launch date (UTC)
2026-03-02 (4 months ago)
Launch vehicle
FALCON 9
Launch site
Air Force Eastern Test Range (AFETR)
Object type
Payload
Rocket body
Debris
Shape & HBR
Box + 2 Pan, 17.7 m
Radar Cross Section
36.964 m², Large (>1 m²)

Expand to show TLE details & history
Last TLE update: 1 day ago

TLE from 1 day ago
0 STARLINK-36864
1 68045U 26041F   26170.65426866  .00013931  00000-0  42269-3 0  9998
2 68045  53.1585 293.8507 0001308  85.5566 274.5586 15.34398811 17034
Epoch: 2026-06-19T15:42Z
TLE epoch observation values (Epoch: 2026-06-19T15:42:08.812Z)
Latitude
-0.00001°
Longitude
150.43383°
Altitude
463.537 km
Speed
7.636 km/s
True Right ascension
19h 35m 24s
True Declination
0° 00' 00"
Sunlit
Object was in full shadow at epoch
Visualization orbit readout
Latitude
Unknown
Longitude
Unknown
Altitude
Unknown
Speed
Unknown
Apparent Right ascension
Unknown
Apparent Declination
Unknown
Sunlit
N/A
Visualization observer readout
Local Sidereal Time
07:18:35
Azimuth
Unknown
Elevation
Unknown
Doppler factor
Unknown
Orbital elements
Apogee altitude
463.859 km
Perigee altitude
462.069 km
Semi-major axis
6,841.101 km
Eccentricity
0.00013
Inclination
53.1585°
RAAN
293.8507°
Arg. of periapsis
85.5566°
True anomaly
274.54366°
Mean anomaly
274.5586°
Eccentric anomaly
274.55113°
Mean motion
3.83578 °/min
Orbital period
93.85 mins
BSTAR
0.00042269
Loading maneuver chart data...
Computing Atmospheric mass density...
Loading historical data...
Loading historical data...
Loading historical data...
Loading historical data...
Loading historical data...
Loading historical data...
Loading historical data...

Documentation

Showing up to 5 results
|